| time (UTC) | temp C | wind direction | speed KPH | gust KPH | rain 1hr cm | rain 24hr cm | rain mn cm | humidity % | barometer mb |
| 20260506215236 | 11 | 288 | 1.6 | 4.8 | 0.00 | 0.97 | 0.97 | 50 | 1012.5 |
| 20260506213734 | 11 | 31 | 0.0 | 1.6 | 0.00 | 0.97 | 0.97 | 50 | 1012.4 |
| 20260506212230 | 11 | 316 | 0.0 | 0.0 | 0.00 | 0.97 | 0.97 | 51 | 1011.9 |
| 20260506210725 | 12 | 307 | 1.6 | 3.2 | 0.00 | 0.97 | 0.97 | 48 | 1012.3 |
| 20260506205220 | 12 | 298 | 0.0 | 4.8 | 0.00 | 0.97 | 0.97 | 50 | 1011.9 |
| 20260506203718 | 12 | 273 | 1.6 | 3.2 | 0.00 | 0.97 | 0.97 | 49 | 1011.9 |
| 20260506202214 | 12 | 318 | 0.0 | 3.2 | 0.00 | 0.97 | 0.97 | 50 | 1012.0 |
| 20260506200711 | 12 | 315 | 1.6 | 3.2 | 0.00 | 0.97 | 0.97 | 48 | 1012.0 |
| 20260506195207 | 13 | 291 | 3.2 | 6.4 | 0.00 | 0.97 | 0.97 | 46 | 1011.9 |
| 20260506193704 | 13 | 294 | 0.0 | 3.2 | 0.00 | 0.97 | 0.97 | 50 | 1011.6 |
| 20260506192200 | 15 | 319 | 1.6 | 3.2 | 0.00 | 0.97 | 0.97 | 49 | 1011.8 |
| 20260506190656 | 13 | 306 | 3.2 | 4.8 | 0.00 | 0.97 | 0.97 | 50 | 1011.9 |
| 20260506185152 | 13 | 337 | 0.0 | 0.0 | 0.00 | 0.97 | 0.97 | 54 | 1012.0 |
| 20260506183649 | 13 | 287 | 3.2 | 4.8 | 0.00 | 0.97 | 0.97 | 48 | 1012.0 |
| 20260506182145 | 13 | 355 | 1.6 | 3.2 | 0.00 | 0.97 | 0.97 | 47 | 1011.9 |
| 20260506180643 | 13 | 349 | 0.0 | 6.4 | 0.00 | 0.97 | 0.97 | 50 | 1011.8 |
| 20260506175138 | 13 | 267 | 0.0 | 0.0 | 0.00 | 0.97 | 0.97 | 52 | 1011.8 |
| 20260506173637 | 13 | 321 | 0.0 | 3.2 | 0.00 | 0.97 | 0.97 | 52 | 1012.0 |
| 20260506172133 | 13 | 302 | 0.0 | 3.2 | 0.00 | 0.97 | 0.97 | 53 | 1011.9 |
| 20260506170631 | 13 | 298 | 3.2 | 4.8 | 0.00 | 0.97 | 0.97 | 53 | 1012.3 |
| 20260506165127 | 13 | 291 | 3.2 | 3.2 | 0.00 | 0.97 | 0.97 | 50 | 1012.5 |
| 20260506163623 | 13 | 315 | 0.0 | 0.0 | 0.00 | 0.97 | 0.97 | 58 | 1011.9 |
| 20260506162122 | 13 | 287 | 1.6 | 3.2 | 0.00 | 0.97 | 0.97 | 53 | 1012.4 |
| 20260506160619 | 12 | 328 | 3.2 | 3.2 | 0.00 | 0.97 | 0.97 | 54 | 1012.0 |
| 20260506155116 | 12 | 309 | 1.6 | 3.2 | 0.00 | 0.97 | 0.97 | 58 | 1011.7 |
| 20260506152814 | 12 | 132 | 1.6 | 1.6 | 0.00 | 0.97 | 0.97 | 59 | 1011.5 |
| 20260506151312 | 11 | 301 | 0.0 | 3.2 | 0.00 | 0.97 | 0.97 | 62 | 1011.4 |
| 20260506145809 | 11 | 140 | 0.0 | 0.0 | 0.00 | 0.97 | 0.97 | 64 | 1011.6 |
| 20260506144305 | 11 | 323 | 0.0 | 0.0 | 0.00 | 0.97 | 0.97 | 71 | 1011.4 |
| 20260506142804 | 10 | 313 | 1.6 | 1.6 | 0.00 | 0.97 | 0.97 | 69 | 1011.1 |
| 20260506141303 | 10 | 322 | 1.6 | 1.6 | 0.00 | 0.97 | 0.97 | 76 | 1010.8 |
| 20260506135800 | 9 | 257 | 0.0 | 1.6 | 0.00 | 0.97 | 0.97 | 82 | 1010.4 |
| 20260506134255 | 8 | 336 | 0.0 | 3.2 | 0.00 | 0.97 | 0.97 | 83 | 1010.8 |
| 20260506132752 | 8 | 281 | 0.0 | 3.2 | 0.00 | 0.97 | 0.97 | 87 | 1010.9 |
| 20260506131249 | 8 | 316 | 0.0 | 0.0 | 0.00 | 0.97 | 0.97 | 92 | 1010.7 |
| 20260506125746 | 8 | 304 | 0.0 | 1.6 | 0.00 | 0.97 | 0.97 | 96 | 1010.4 |
| 20260506124245 | 7 | 302 | 0.0 | 1.6 | 0.00 | 0.97 | 0.97 | 99 | 1009.9 |
| 20260506122744 | 7 | 307 | 0.0 | 1.6 | 0.00 | 0.97 | 0.97 | 99 | 1010.2 |
| 20260506121241 | 6 | 343 | 4.8 | 4.8 | 0.00 | 0.97 | 0.97 | 99 | 1010.1 |
| 20260506115740 | 6 | 296 | 0.0 | 0.0 | 2.77 | 0.97 | 0.97 | 99 | 1009.8 |
| 20260506114239 | -17 | 0.0 | 0.0 | 0.00 | 0.00 | 0.00 | 1009.4 | ||
| 20260506112736 | -17 | 0.0 | 0.0 | 0.00 | 0.00 | 0.00 | 1009.3 | ||
| 20260506111235 | -17 | 0.0 | 0.0 | 0.00 | 0.00 | 0.00 | 1009.2 | ||
| 20260506105731 | -17 | 0.0 | 0.0 | 0.00 | 0.00 | 0.00 | 1009.2 | ||
| 20260506104229 | -17 | 0.0 | 0.0 | 0.00 | 0.00 | 0.00 | 1009.0 | ||
| 20260506102727 | -17 | 0.0 | 0.0 | 0.00 | 0.00 | 0.00 | 1008.9 | ||
| 20260506101224 | -17 | 0.0 | 0.0 | 0.00 | 0.00 | 0.00 | 1008.4 | ||
| 20260506095724 | -17 | 0.0 | 0.0 | 0.00 | 0.00 | 0.00 | 1007.9 | ||
| 20260506094221 | -17 | 0.0 | 0.0 | 0.00 | 0.00 | 0.00 | 1008.2 | ||
| 20260506092720 | -17 | 0.0 | 0.0 | 0.00 | 0.00 | 0.00 | 1008.3 | ||
| 20260506091218 | -17 | 0.0 | 0.0 | 0.00 | 0.00 | 0.00 | 1008.7 | ||
| 20260506085715 | -17 | 0.0 | 0.0 | 0.00 | 0.00 | 0.00 | 1008.5 | ||
| 20260506084215 | -17 | 0.0 | 0.0 | 0.00 | 0.00 | 0.00 | 1008.1 | ||
| 20260506082713 | -17 | 0.0 | 0.0 | 0.00 | 0.00 | 0.00 | 1008.3 | ||
| 20260506081209 | -17 | 0.0 | 0.0 | 0.00 | 0.00 | 0.00 | 1008.3 | ||
| 20260506072701 | -17 | 0.0 | 0.0 | 0.00 | 0.00 | 0.00 | 1008.1 | ||
| 20260506071200 | -17 | 0.0 | 0.0 | 0.00 | 0.00 | 0.00 | 1008.2 | ||
| 20260506061154 | 7 | 328 | 0.0 | 0.0 | 3.00 | 0.51 | 0.51 | 99 | 1008.4 |
| 20260506051144 | -17 | 0.0 | 0.0 | 0.00 | 0.00 | 0.00 | 1008.5 | ||
| 20260506044139 | -17 | 0.0 | 0.0 | 0.00 | 0.00 | 0.00 | 1008.3 | ||
| 20260506042639 | -17 | 0.0 | 0.0 | 0.00 | 0.00 | 0.00 | 1008.3 | ||
| 20260506041137 | -17 | 0.0 | 0.0 | 0.00 | 0.00 | 0.00 | 1008.4 | ||
| 20260506035635 | 8 | 320 | 0.0 | 0.0 | 0.18 | 2.72 | 2.72 | 99 | 1008.5 |
| 20260506034131 | -17 | 0.0 | 0.0 | 0.00 | 0.00 | 0.00 | 1008.8 | ||
| 20260506032628 | -17 | 0.0 | 0.0 | 0.00 | 0.00 | 0.00 | 1008.2 | ||
| 20260506031125 | -17 | 0.0 | 0.0 | 0.00 | 0.00 | 0.00 | 1008.5 | ||
| 20260506025623 | -17 | 0.0 | 0.0 | 0.00 | 0.00 | 0.00 | 1008.6 | ||
| 20260506024118 | -17 | 0.0 | 0.0 | 0.00 | 0.00 | 0.00 | 1008.6 | ||
| 20260506022615 | -17 | 0.0 | 0.0 | 0.00 | 0.00 | 0.00 | 1008.8 | ||
| 20260506021113 | -17 | 0.0 | 0.0 | 0.00 | 0.00 | 0.00 | 1008.9 | ||
| 20260506015611 | -17 | 0.0 | 0.0 | 0.00 | 0.00 | 0.00 | 1008.7 | ||
| 20260506014106 | -17 | 0.0 | 0.0 | 0.00 | 0.00 | 0.00 | 1008.6 | ||
| 20260506012603 | -17 | 0.0 | 0.0 | 0.00 | 1.88 | 1.88 | 1008.3 | ||
| 20260506011059 | -17 | 0.0 | 0.0 | 0.00 | 1.88 | 1.88 | 1007.9 | ||
| 20260506005559 | -17 | 0.0 | 0.0 | 0.00 | 1.88 | 1.88 | 1008.1 | ||
| 20260506004054 | 8 | 48 | 0.0 | 0.0 | 0.18 | 1.88 | 1.88 | 99 | 1008.0 |
| 20260506002554 | 8 | 48 | 0.0 | 0.0 | 0.18 | 1.83 | 1.83 | 99 | 1007.9 |
| 20260506001050 | 9 | 60 | 0.0 | 0.0 | 0.43 | 1.80 | 1.80 | 99 | 1008.0 |
| 20260505235548 | 9 | 104 | 0.0 | 0.0 | 0.18 | 1.73 | 1.73 | 99 | 1007.8 |
| 20260505234044 | 9 | 111 | 0.0 | 0.0 | 0.30 | 1.68 | 1.68 | 99 | 1007.9 |
| 20260505232543 | 8 | 353 | 0.0 | 0.0 | 0.30 | 1.63 | 1.63 | 99 | 1008.1 |
| 20260505231042 | 9 | 296 | 0.0 | 0.0 | 0.48 | 1.55 | 1.55 | 99 | 1008.2 |
| 20260505225537 | 9 | 287 | 0.0 | 0.0 | 0.00 | 1.47 | 1.47 | 99 | 1007.8 |
| 20260505224033 | 9 | 317 | 0.0 | 0.0 | 0.30 | 1.45 | 1.45 | 99 | 1007.2 |
| 20260505222529 | 10 | 311 | 0.0 | 1.6 | 0.36 | 1.40 | 1.40 | 99 | 1007.4 |
| 20260505221025 | 10 | 331 | 1.6 | 1.6 | 0.43 | 1.35 | 1.35 | 99 | 1007.5 |